Location: Perryvale
(54.4667°N, 113.3833°W)
Time: 18:08:52
(UTC+00:00)

A-11 Canister half - All Passes

Search period start: 27 May 2024 00:00
Search period end: 06 June 2024 00:00
Orbit: 1525 x 1683 km, 47.3° (Epoch: 26 May)

Date Brightness Start Highest point End Pass type
(mag) Time Alt. Az. Time Alt. Az. Time Alt. Az.
27 May - 01:18:34 10° SE 01:19:44 10° ESE 01:20:53 10° ESE daylight
27 May - 03:14:13 10° SSW 03:22:07 32° SE 03:30:11 10° E daylight
27 May - 05:16:41 10° WSW 05:25:43 54° SSE 05:35:03 10° E visible
27 May - 07:20:43 10° W 07:29:52 54° SSW 07:39:18 10° ESE visible
27 May - 09:25:22 10° W 09:33:34 33° SW 09:41:58 10° SSE visible
27 May - 11:33:46 10° WSW 11:36:07 11° WSW 11:38:28 10° SW daylight
28 May - 02:52:40 10° SSW 03:00:27 31° SE 03:08:23 10° E daylight
28 May - 04:55:01 10° WSW 05:04:00 53° SSE 05:13:17 10° E visible
28 May - 06:59:00 10° W 07:08:08 54° S 07:17:34 10° ESE visible
28 May - 09:03:36 10° W 09:11:52 34° SW 09:20:21 10° SSE visible
28 May - 11:11:23 10° WSW 11:14:29 12° SW 11:17:37 10° SW daylight
29 May - 02:31:07 10° SSW 02:38:47 30° SE 02:46:35 10° E daylight
29 May - 04:33:20 10° WSW 04:42:17 52° SSE 04:51:31 10° E visible
29 May - 06:37:17 10° W 06:46:25 55° S 06:55:50 10° ESE visible
29 May - 08:41:51 10° W 08:50:11 35° SSW 08:58:44 10° SSE visible
29 May - 10:49:10 10° WSW 10:52:51 13° SW 10:56:34 10° SSW daylight
30 May - 02:09:34 10° SSW 02:17:07 29° SE 02:24:47 10° E daylight
30 May - 04:11:39 10° WSW 04:20:34 52° SSE 04:29:45 10° E daylight
30 May - 06:15:34 10° W 06:24:41 55° S 06:34:05 10° ESE visible
30 May - 08:20:06 10° W 08:28:29 36° SSW 08:37:06 10° SSE visible
30 May - 10:27:03 10° W 10:31:13 14° SW 10:35:26 10° SSW daylight
31 May - 01:48:03 10° SSW 01:55:27 28° SE 02:02:59 10° E daylight
31 May - 03:49:59 10° SW 03:58:52 51° SSE 04:07:59 10° E daylight
31 May - 05:53:51 10° W 06:02:58 56° S 06:12:21 10° ESE visible
31 May - 07:58:21 10° W 08:06:47 37° SSW 08:15:27 10° SSE visible
31 May - 10:05:01 10° W 10:09:34 14° SW 10:14:12 10° SSW visible
01 Jun - 01:26:32 10° SSW 01:33:48 27° SE 01:41:11 10° E daylight
01 Jun - 03:28:20 10° SW 03:37:09 50° SSE 03:46:14 10° E daylight
01 Jun - 05:32:09 10° W 05:41:14 56° S 05:50:36 10° ESE visible
01 Jun - 07:36:37 10° W 07:45:06 38° SSW 07:53:48 10° SSE visible
01 Jun - 09:43:00 10° W 09:47:56 15° SW 09:52:56 10° SSW visible
02 Jun - 01:05:02 10° S 01:12:09 26° SE 01:19:21 10° E daylight
02 Jun - 03:06:39 10° SW 03:15:28 49° SSE 03:24:28 10° E daylight
02 Jun - 05:10:26 10° W 05:19:31 56° S 05:28:51 10° ESE visible
02 Jun - 07:14:53 10° W 07:23:23 39° SSW 07:32:09 10° SE visible
02 Jun - 09:21:03 10° W 09:26:17 16° SW 09:31:37 10° SSW visible
03 Jun - 00:43:32 10° S 00:50:30 24° SE 00:57:32 10° E daylight
03 Jun - 02:45:00 10° SW 02:53:45 48° SSE 03:02:42 10° E daylight
03 Jun - 04:48:44 10° W 04:57:48 57° S 05:07:07 10° ESE visible
03 Jun - 06:53:08 10° W 07:01:41 40° SSW 07:10:29 10° SE visible
03 Jun - 08:59:07 10° W 09:04:38 17° SW 09:10:15 10° SSW visible
04 Jun - 00:22:03 10° S 00:28:51 23° SE 00:35:41 10° E daylight
04 Jun - 02:23:21 10° SW 02:32:03 47° SSE 02:40:56 10° E daylight
04 Jun - 04:27:01 10° WSW 04:36:04 57° S 04:45:23 10° ESE daylight
04 Jun - 06:31:25 10° W 06:39:59 41° SSW 06:48:49 10° SE visible
04 Jun - 08:37:13 10° W 08:43:00 18° SW 08:48:52 10° S visible
05 Jun - 00:00:35 10° S 00:07:12 22° SE 00:13:52 10° E daylight
05 Jun - 02:01:42 10° SW 02:10:21 46° SSE 02:19:11 10° E daylight
05 Jun - 04:05:18 10° WSW 04:14:21 57° S 04:23:37 10° ESE daylight
05 Jun - 06:09:40 10° W 06:18:17 42° SSW 06:27:09 10° SE visible
05 Jun - 08:15:20 10° W 08:21:20 19° SW 08:27:27 10° S visible
05 Jun - 23:39:08 10° S 23:45:33 21° SE 23:52:00 10° E daylight
